Manhattan, KS

5:34 AM CST on December 16, 2019 (GMT -0600)
Manhattan Regional

Weather History for KMHK - October, 2019

Change the Weather History Date:

Saturday, October 19, 2019

  Actual Average Record
Temperature  
Mean Temperature 56 °F 54 °F  
Max Temperature 71 °F 67 °F 88 °F (2003)
Min Temperature 41 °F 41 °F 24 °F (2006)
Degree Days  
Heating Degree Days 9 11  
Month to date heating degree days 167 164  
Since 1 July heating degree days 168 234  
Cooling Degree Days 0 0  
Month to date cooling degree days 15 21  
Year to date cooling degree days 1610 1358  
Growing Degree Days 7 (Base 50)    
Moisture  
Dew Point 46 °F    
Average Humidity 62    
Maximum Humidity 93    
Minimum Humidity 31    
Precipitation  
Precipitation 0.01 in 0.07 in 0.88 in (2005)
Month to date precipitation 2.63 1.47  
Year to date precipitation 40.61 29.18  
Sea Level Pressure  
Sea Level Pressure 29.77 in    
Wind  
Wind Speed 3 mph (North)    
Max Wind Speed 12 mph    
Max Gust Speed 20 mph    
Visibility 10 miles    
Events Rain    
T = Trace of Precipitation, MM = Missing Value Source: NWS Daily Summary

Daily Weather History Graph

Daily Weather History Graph

Search for Another Location

Airport or City:

Astronomy

Oct. 19, 2019 Rise Set
Actual Time 7:40 AM CDT 6:42 PM CDT
Civil Twilight 7:13 AM CDT 7:09 PM CDT
Nautical Twilight 6:41 AM CDT 7:40 PM CDT
Astronomical Twilight 6:11 AM CDT 8:11 PM CDT
Moon 10:54 PM CDT (10/19) 1:11 PM CDT (10/19)
Length of Visible Light 11h 56m
Length of Day
11h 02m
Waning Gibbous, 69% of the Moon is Illuminated
Oct 19
Waning Gibbous
Oct 21
Last Quarter
Oct 27
New
Nov 4
First Quarter
Nov 12
Full

Hourly Weather History & Observations

Time (CDT) Temp. Dew Point Humidity Pressure Visibility Wind Dir Wind Speed Gust Speed Precip Events Conditions
12:04 AM 57.2 °F 53.6 °F 88% 29.71 in 10.0 mi Calm Calm - N/A Rain Light Rain
12:52 AM 57.0 °F 53.1 °F 87% 29.69 in 10.0 mi Calm Calm - 0.00 in   Overcast
1:52 AM 55.9 °F 52.0 °F 87% 29.67 in 10.0 mi NNE 3.5 mph - 0.02 in   Scattered Clouds
2:52 AM 55.9 °F 51.1 °F 84% 29.68 in 10.0 mi Calm Calm - 0.00 in   Scattered Clouds
3:52 AM 55.0 °F 50.0 °F 83% 29.70 in 10.0 mi SSW 4.6 mph - N/A   Partly Cloudy
4:52 AM 55.0 °F 50.0 °F 83% 29.69 in 10.0 mi NNW 6.9 mph - N/A   Partly Cloudy
5:52 AM 55.0 °F 51.1 °F 86% 29.71 in 10.0 mi Calm Calm - N/A   Mostly Cloudy
6:52 AM 55.0 °F 51.1 °F 86% 29.74 in 10.0 mi North 4.6 mph - N/A   Mostly Cloudy
7:52 AM 54.0 °F 51.1 °F 90% 29.78 in 10.0 mi Calm Calm - N/A   Overcast
8:52 AM 55.9 °F 48.9 °F 77% 29.80 in 10.0 mi NNW 5.8 mph - N/A   Mostly Cloudy
9:52 AM 57.0 °F 46.9 °F 69% 29.82 in 10.0 mi North 6.9 mph - N/A   Clear
10:52 AM 60.1 °F 46.0 °F 60% 29.83 in 10.0 mi North 9.2 mph - N/A   Clear
11:52 AM 64.9 °F 46.0 °F 50% 29.82 in 10.0 mi NNW 6.9 mph - N/A   Clear
12:52 PM 66.9 °F 46.9 °F 49% 29.81 in 10.0 mi North 5.8 mph - N/A   Clear
1:52 PM 68.0 °F 44.1 °F 42% 29.80 in 10.0 mi NNE 6.9 mph - N/A   Clear
2:52 PM 69.1 °F 41.0 °F 36% 29.78 in 10.0 mi North 5.8 mph - N/A   Clear
3:52 PM 70.0 °F 39.9 °F 33% 29.77 in 10.0 mi Variable 3.5 mph - N/A   Clear
4:52 PM 70.0 °F 37.9 °F 31% 29.77 in 10.0 mi Calm Calm - N/A   Clear
5:52 PM 66.9 °F 42.1 °F 40% 29.78 in 10.0 mi NE 3.5 mph - N/A   Clear
7:52 PM 50.0 °F 42.1 °F 74% 29.81 in 10.0 mi Calm Calm - N/A   Clear
8:52 PM 48.0 °F 42.1 °F 80% 29.82 in 10.0 mi Calm Calm - N/A   Clear
9:52 PM 45.0 °F 42.1 °F 90% 29.84 in 10.0 mi Calm Calm - N/A   Clear
10:52 PM 44.1 °F 41.0 °F 89% 29.83 in 10.0 mi Calm Calm - N/A   Clear
11:52 PM 43.0 °F 39.9 °F 89% 29.83 in 10.0 mi Calm Calm - N/A   Clear